SCP
0 0 0 0 0 0 0 -0 -0 0 0 0 0 0 -0 -0 -0 -0 -0 -0 0 0 -0 -0 -0 -0 -0 -0 -0 -0 -0 -0 -0 -0 -0 -0 -0 -0 -0 -0 -0 -0 -0
-0 0 0 0 0 0 0 0 -0 0 0 0 0 -0 -0 -0 -0 -0 -0 -0 -0 -0 -0 0 -0 -0 -0 -0 -0 -0 0 -0 -0 -0 -0 -0 -0 0 -0 -0 -0 -0 -0
-0 0 0 0 0 0 0 0 0 0 0 0 -0 0 -0 -0 0 0 -0 0 -0 -0 -0 0 0 -0 -0 0 -0 0 -0 -0 -1 -0 -0 -0 0 -0 -0 -0 -0 -0 -0
-0 -0 -0 0 -0 0 0 0 0 0 0 0 -0 -0 -0 -0 -0 -0 0 0 0 -0 0 -0 -0 -0 0 0 0 -0 -0 -0 -0 -0 0 0 0 0 -0 -0 -0 -0 -0
0 0 0 0 -0 0 0 -0 0 0 0 0 0 -0 -0 -0 -0 -0 -0 -0 0 0 0 -0 -0 -0 0 0 0 -0 -0 -0 -0 -0 -0 -0 -0 0 -0 -0 -0 -0 -0
0 -0 0 -0 0 0 0 -0 -0 0 0 0 0 0 -0 -0 -0 0 0 -0 -0 0 -0 -0 -0 0 0 0 -0 -0 -0 -0 -0 -0 -0 -0 -0 -0 -0 -0 -0 -0 -0
-0 0 -0 -0 -0 0 -0 -0 -0 -0 -0 0 0 -0 -0 -0 -0 -0 0 0 0 0 0 -0 -0 0 0 0 -0 -0 0 -0 -0 -0 -0 -0 -0 -0 -0 -0 -0 -0 -0
-0 -0 -0 -0 -0 -0 -0 -0 -0 -0 -0 -0 -0 -0 -0 0 -0 -0 -0 0 0 0 0 0 0 -0 -0 0 -0 -0 -0 -0 -0 -0 -0 0 -0 -0 -0 -0 -0 -0 -0
-0 -0 -0 -0 0 -0 -0 -0 -0 -0 -0 -0 -0 -0 0 -0 -0 -0 -0 -0 0 -0 -0 -0 -0 -0 -0 -0 -0 -0 -0 -0 0 0 -0 -0 -0 -0 -0 -0 -0 -0 -0
0 -0 0 -0 0 0 0 -0 -0 -0 -0 -0 -0 -0 -0 -0 -0 -0 0 -0 0 -0 -0 -0 -0 -0 -0 -0 -0 -0 -0 0 -0 0 -0 0 -0 -0 -0 -0 -0 -0 -0
-0 0 -0 -0 -0 0 -0 0 -0 -0 -0 -0 -0 -0 -0 0 0 0 -0 -0 0 0 0 0 -0 -0 -0 0 0 -0 0 -0 0 0 -0 -0 -0 -0 -0 -0 -0 -0 -0
0 0 -0 -0 0 -0 -0 -0 0 0 0 0 0 0 0 0 0 0 0 -0 0 0 0 -0 -0 -0 0 -0 -0 0 -0 -0 0 0 -0 -0 -0 -0 -0 -0 -0 -0 -0
0 0 0 -0 -0 -0 0 -0 0 0 -0 -0 0 0 -0 0 0 0 0 0 0 0 0 0 -0 -0 0 -0 -0 -0 -0 -0 -0 0 0 -0 -0 -0 -0 -0 -0 -0 -0
-0 0 0 -0 -0 -0 -0 -0 0 -0 0 0 0 -0 -0 0 0 0 0 0 0 0 0 0 0 0 0 -0 -0 0 0 -0 -0 0 0 -0 -1 -1 -0 -0 -0 -0 -0
-0 -0 -0 -0 -0 0 0 -0 -0 -0 0 0 0 -0 0 0 0 0 0 0 0 0 0 0 0 0 0 -0 0 0 0 0 0 0 0 -0 -0 -0 -0 -1 -0 -0 -0
0 0 0 0 0 -0 0 -0 -0 -0 0 -0 0 0 0 0 0 0 0 0 0 0 0 0 0 0 0 -0 0 0 0 0 -0 -0 0 -0 -0 -0 -0 -0 -0 -0 -0
0 0 0 0 0 0 0 0 0 0 -0 -0 0 0 0 0 0 0 0 0 0 0 0 0 0 0 0 0 -0 -0 0 -0 0 -0 -0 0 -0 -0 -0 -0 -0 -0 -0
0 -0 -0 0 0 -0 -0 -0 -0 -0 0 0 0 0 0 0 -0 0 0 0 0 0 0 0 0 0 0 0 0 -0 -0 -0 -0 -0 -0 -0 0 -0 -0 -1 -0 -0 -0
-0 -0 -0 -0 -0 -0 0 -0 0 0 0 0 -0 0 0 -0 0 0 0 -0 0 0 0 0 0 0 0 0 0 0 0 -0 -0 -0 -0 -0 -0 0 -0 -0 -0 -0 -0
-0 -0 -0 -0 -0 -0 -0 -0 0 -0 -0 0 0 0 0 0 0 0 0 0 0 0 0 0 0 0 0 0 0 0 0 0 0 0 -0 -0 -0 -0 0 0 0 -0 -0
-0 0 -0 -0 -0 -0 0 0 0 -0 0 0 0 0 0 0 0 0 0 0 0 0 0 0 0 0 0 0 0 0 0 0 0 0 0 0 0 0 -0 0 0 0 0
0 0 -0 0 0 0 0 -0 0 0 0 0 0 0 0 0 0 0 0 0 0 0 0 0 0 0 0 0 0 0 0 0 0 0 0 0 0 -0 -0 0 0 0 0
-0 -0 0 0 0 0 -0 0 0 0 0 0 0 0 0 -0 -0 0 0 0 0 0 0 0 0 0 0 0 0 0 0 0 0 0 0 0 0 0 0 0 0 -0 -0
0 0 0 0 0 -0 0 0 0 0 -0 0 0 0 0 0 0 0 0 0 0 0 0 0 0 0 0 0 0 0 0 0 0 0 0 0 -0 0 0 0 0 0 -0
0 0 0 0 0 0 1 0 0 0 0 0 0 0 0 -0 -0 0 0 0 0 0 0 0 0 0 0 0 0 0 0 0 0 0 0 0 0 0 0 0 0 0 0
0 0 0 0 0 0 0 0 0 0 0 -0 -0 -0 0 0 0 0 0 0 0 0 0 0 0 0 0 0 0 0 0 0 0 0 0 0 0 0 0 0 0 0 0
Wind_Speed_500mb
40 34 36 34 33 34 35 36 36 34 35 36 36 34 31 27 22 23 29 33 26 25 24 18 12 10 13 13 16 16 16 17 18 23 30 30 27 30 28 26 23 24 25
46 43 40 36 32 32 32 32 33 31 33 31 27 26 25 21 23 24 23 21 19 20 18 16 11 14 15 14 16 22 24 25 22 22 23 22 25 29 28 23 19 22 26
48 44 39 37 34 31 29 29 29 31 31 29 23 22 19 18 17 17 18 18 19 19 16 18 16 17 17 18 22 25 23 23 24 25 20 22 13 17 22 23 15 23 24
45 43 40 37 34 30 27 26 27 27 29 27 23 19 19 18 19 16 18 18 18 16 16 17 16 17 20 20 25 24 23 22 21 17 15 14 17 16 18 13 16 21 23
45 39 36 33 30 27 24 25 25 26 28 26 20 19 20 16 18 15 17 17 13 14 18 14 16 19 20 24 24 25 18 21 19 7 24 11 13 12 14 17 21 25 19
35 31 32 33 30 28 25 25 25 25 26 24 19 20 21 18 16 16 16 15 16 14 16 14 16 18 19 25 29 28 14 15 15 23 32 21 15 13 18 19 19 23 19
22 22 28 30 28 24 23 22 25 25 23 21 20 19 19 17 15 15 12 12 13 14 15 14 16 19 20 23 27 30 21 11 28 26 18 12 10 14 16 15 18 17 19
22 22 23 26 25 23 22 24 24 22 20 20 16 16 19 15 12 6 8 12 11 12 13 12 15 16 14 20 26 29 26 9 9 29 28 13 6 9 13 15 17 18 18
28 20 29 30 27 23 21 22 22 18 14 13 15 13 15 16 13 3 3 9 13 13 12 12 12 12 8 15 20 28 18 11 7 18 9 8 8 9 11 16 17 18 18
39 23 21 30 28 23 21 18 15 14 13 13 12 12 13 11 4 5 12 15 13 13 11 11 9 11 12 13 14 20 21 13 7 12 14 10 8 5 8 14 16 19 18
43 32 16 25 23 21 16 11 6 7 11 13 11 11 10 6 9 11 4 17 14 13 12 11 10 12 13 14 12 13 17 18 9 6 5 9 8 13 15 15 16 19 21
43 48 32 17 17 18 15 10 7 10 12 11 9 5 7 8 6 10 10 10 13 12 12 12 16 15 16 15 15 11 10 22 20 19 16 11 7 10 18 18 18 20 22
50 46 44 33 24 27 21 26 18 14 16 15 6 7 9 9 2 5 1 3 10 13 18 32 24 20 22 21 20 20 22 22 18 28 28 21 14 12 11 16 22 26 22
51 42 39 46 31 26 23 14 27 18 22 18 9 10 17 16 9 12 10 8 8 13 18 29 23 34 29 24 23 32 23 32 20 18 27 21 20 17 18 13 18 28 30
36 46 46 40 30 25 19 20 13 20 16 16 12 12 12 20 18 18 19 17 15 14 17 16 25 28 21 33 24 24 35 26 25 31 24 32 21 26 26 21 18 18 26
35 43 41 30 24 17 15 21 26 22 17 17 19 18 21 26 20 26 24 23 25 18 18 26 21 19 19 32 33 24 35 35 37 39 33 27 25 26 35 28 27 24 23
38 38 27 29 21 21 18 17 43 31 17 18 22 18 17 22 24 26 30 33 26 28 28 23 28 34 32 30 38 43 45 47 41 31 33 37 43 40 34 34 34 30 29
42 42 33 24 14 8 13 12 32 38 31 22 12 6 12 11 15 19 23 30 27 23 26 26 29 37 39 39 35 33 50 55 46 40 41 44 48 52 50 48 40 39 31
41 47 41 29 18 15 11 12 19 24 21 22 15 7 10 15 11 4 11 16 14 16 19 20 19 25 24 27 34 33 35 37 48 58 55 53 52 53 53 52 52 43 40
33 43 45 32 26 23 15 13 20 17 21 24 13 5 8 9 4 3 3 5 7 15 14 16 19 19 22 22 32 32 31 28 30 36 43 46 47 48 44 48 57 53 45
36 49 49 38 32 30 26 20 20 19 20 22 10 7 5 10 9 9 7 4 5 6 9 13 18 22 23 22 34 33 28 28 15 19 25 32 39 45 42 46 51 56 53
37 48 43 38 40 38 33 22 15 9 20 12 8 6 10 7 3 4 2 1 8 7 9 9 13 20 17 20 24 27 13 13 12 13 18 27 42 47 38 34 42 58 59
15 49 47 39 40 37 28 18 15 3 13 7 7 3 13 18 11 2 5 6 3 6 6 9 11 13 13 12 18 16 7 6 20 27 20 24 36 38 44 43 35 50 60
41 38 49 52 40 38 25 23 15 19 20 19 19 16 11 4 7 3 2 3 2 4 6 8 11 13 14 20 16 13 16 20 17 20 20 18 13 33 21 26 36 27 57
42 16 25 44 40 33 38 20 14 18 19 18 14 13 6 6 10 9 8 8 10 10 10 12 12 14 18 19 18 20 23 20 16 22 37 27 24 29 32 36 29 33 46
27 22 39 38 33 36 38 30 21 17 12 15 11 2 6 19 22 18 15 13 17 20 23 26 23 21 21 20 21 19 19 22 22 19 28 36 35 27 24 29 31 33 33
Wind_Direction_500mb
148 138 129 125 124 121 114 107 103 104 108 112 118 123 127 129 120 120 123 122 125 134 140 140 141 170 156 126 141 131 129 131 125 124 124 130 119 124 122 133 123 130 127
145 142 136 135 133 127 120 112 106 107 109 109 112 115 114 113 110 112 119 124 126 131 138 133 125 110 126 131 115 108 102 107 115 108 113 119 128 133 129 130 118 129 130
148 145 144 137 136 131 126 117 109 105 108 107 104 101 103 106 110 112 117 123 120 122 120 122 122 121 122 119 114 109 115 124 133 118 118 122 122 130 128 134 121 132 132
147 146 142 139 137 137 131 123 113 113 112 105 102 91 95 93 100 107 109 114 117 120 114 119 118 121 120 116 111 119 121 112 112 115 103 119 137 148 140 138 138 131 135
148 146 144 143 145 146 140 129 124 117 114 108 102 100 101 102 100 109 114 121 119 124 129 128 122 121 119 116 116 118 127 121 102 286 203 177 134 157 148 146 147 132 135
140 144 147 143 139 140 136 133 131 125 118 113 114 113 118 108 116 106 116 117 124 123 130 133 129 127 122 115 119 124 108 88 82 108 132 138 124 154 140 135 137 134 135
133 147 158 152 148 145 144 140 136 132 125 116 123 127 127 122 116 117 117 127 138 140 137 133 133 133 124 120 127 122 113 83 109 114 148 102 130 153 147 145 151 142 146
166 178 179 167 160 158 154 147 143 138 138 130 128 131 133 127 115 114 148 154 152 146 150 146 146 146 129 128 128 133 135 115 89 119 108 96 138 159 152 163 158 143 152
165 182 183 174 165 161 156 148 151 147 145 141 145 144 134 140 135 86 141 187 174 174 158 158 158 168 157 144 140 152 152 137 179 156 108 176 148 149 164 172 165 160 163
158 204 192 171 166 160 158 153 153 158 165 163 158 156 148 149 190 318 247 207 190 178 173 177 187 204 198 183 158 152 163 143 158 174 188 160 215 215 182 188 171 171 171
160 187 198 176 173 161 152 154 164 179 175 174 173 165 154 122 86 30 235 174 184 189 195 207 217 228 228 215 199 183 175 186 224 207 142 202 236 257 216 215 196 185 187
179 179 188 182 135 164 192 198 189 167 183 183 152 161 182 135 122 70 84 177 194 201 204 224 234 226 236 232 214 206 229 220 233 236 268 261 320 262 233 253 225 209 202
178 173 189 193 168 196 209 210 198 189 197 195 187 226 225 209 298 229 169 169 220 228 243 230 220 224 235 217 208 229 246 235 229 248 244 231 255 277 258 258 236 227 216
179 166 182 189 183 184 210 248 216 204 232 219 249 242 209 210 231 248 250 250 257 251 276 238 232 248 242 220 236 249 249 236 247 283 254 221 264 282 241 253 242 240 232
181 177 165 180 199 211 230 201 171 210 215 234 248 235 248 214 230 250 252 259 277 266 249 239 253 251 278 225 238 249 247 250 248 248 263 254 276 269 244 253 260 257 247
159 163 173 195 223 244 232 215 206 193 190 225 262 268 245 221 228 226 245 250 268 259 246 247 253 259 250 230 235 236 232 243 242 248 251 267 271 264 249 257 261 256 256
171 187 202 213 241 247 225 245 200 190 211 240 266 280 257 238 254 257 253 248 251 255 252 257 258 265 268 260 246 235 249 260 239 229 233 259 264 266 257 260 255 252 248
171 192 195 215 211 199 192 137 178 199 214 227 242 280 300 252 215 242 246 253 257 248 254 259 254 256 258 262 262 256 249 247 244 242 238 239 253 264 265 263 261 254 249
176 185 196 210 213 214 186 199 184 204 221 228 216 315 3 169 175 201 240 240 248 261 261 268 265 268 280 279 276 275 263 256 250 247 248 251 253 259 256 257 255 249 247
192 190 196 199 204 215 218 224 205 203 226 206 253 325 281 243 262 2 334 179 258 302 286 275 296 299 291 307 301 288 286 275 260 257 257 258 261 252 257 259 249 250 251
178 178 198 210 203 219 233 239 225 201 220 236 239 239 281 247 258 235 235 243 348 341 324 321 325 318 300 318 315 320 326 322 288 274 272 257 251 247 256 254 254 246 250
171 189 194 210 208 221 226 232 210 234 229 228 217 280 303 296 281 217 275 326 355 352 6 329 316 307 307 317 326 333 337 282 280 280 292 283 260 241 254 255 248 250 245
199 189 187 194 208 233 245 219 169 216 255 240 253 354 333 326 309 323 47 28 33 1 327 309 323 317 332 339 324 320 317 292 287 300 282 295 263 262 256 263 260 251 247
219 198 198 210 210 221 241 210 203 196 214 189 182 165 85 279 252 178 220 274 353 290 307 315 315 321 317 308 313 316 323 306 286 297 286 295 314 234 262 253 285 265 250
196 194 190 195 209 203 223 229 212 216 225 200 207 183 257 296 255 219 243 269 269 280 285 284 297 303 297 289 287 298 294 301 305 277 296 322 286 275 275 280 286 267 239
174 174 184 193 193 201 208 218 238 234 221 223 213 275 304 237 237 254 272 278 283 284 284 286 294 289 289 290 284 281 285 297 301 298 289 303 304 300 284 282 282 271 256
Wind_Speed_850mb
40 34 36 34 33 34 35 36 36 34 35 36 36 34 31 27 22 23 29 33 26 25 24 18 12 10 13 13 16 16 16 17 18 23 30 30 27 30 28 26 23 24 25
46 43 40 36 32 32 32 32 33 31 33 31 27 26 25 21 23 24 23 21 19 20 18 16 11 14 15 14 16 22 24 25 22 22 23 22 25 29 28 23 19 22 26
48 44 39 37 34 31 29 29 29 31 31 29 23 22 19 18 17 17 18 18 19 19 16 18 16 17 17 18 22 25 23 23 24 25 20 22 13 17 22 23 15 23 24
45 43 40 37 34 30 27 26 27 27 29 27 23 19 19 18 19 16 18 18 18 16 16 17 16 17 20 20 25 24 23 22 21 17 15 14 17 16 18 13 16 21 23
45 39 36 33 30 27 24 25 25 26 28 26 20 19 20 16 18 15 17 17 13 14 18 14 16 19 20 24 24 25 18 21 19 7 24 11 13 12 14 17 21 25 19
35 31 32 33 30 28 25 25 25 25 26 24 19 20 21 18 16 16 16 15 16 14 16 14 16 18 19 25 29 28 14 15 15 23 32 21 15 13 18 19 19 23 19
22 22 28 30 28 24 23 22 25 25 23 21 20 19 19 17 15 15 12 12 13 14 15 14 16 19 20 23 27 30 21 11 28 26 18 12 10 14 16 15 18 17 19
22 22 23 26 25 23 22 24 24 22 20 20 16 16 19 15 12 6 8 12 11 12 13 12 15 16 14 20 26 29 26 9 9 29 28 13 6 9 13 15 17 18 18
28 20 29 30 27 23 21 22 22 18 14 13 15 13 15 16 13 3 3 9 13 13 12 12 12 12 8 15 20 28 18 11 7 18 9 8 8 9 11 16 17 18 18
39 23 21 30 28 23 21 18 15 14 13 13 12 12 13 11 4 5 12 15 13 13 11 11 9 11 12 13 14 20 21 13 7 12 14 10 8 5 8 14 16 19 18
43 32 16 25 23 21 16 11 6 7 11 13 11 11 10 6 9 11 4 17 14 13 12 11 10 12 13 14 12 13 17 18 9 6 5 9 8 13 15 15 16 19 21
43 48 32 17 17 18 15 10 7 10 12 11 9 5 7 8 6 10 10 10 13 12 12 12 16 15 16 15 15 11 10 22 20 19 16 11 7 10 18 18 18 20 22
50 46 44 33 24 27 21 26 18 14 16 15 6 7 9 9 2 5 1 3 10 13 18 32 24 20 22 21 20 20 22 22 18 28 28 21 14 12 11 16 22 26 22
51 42 39 46 31 26 23 14 27 18 22 18 9 10 17 16 9 12 10 8 8 13 18 29 23 34 29 24 23 32 23 32 20 18 27 21 20 17 18 13 18 28 30
36 46 46 40 30 25 19 20 13 20 16 16 12 12 12 20 18 18 19 17 15 14 17 16 25 28 21 33 24 24 35 26 25 31 24 32 21 26 26 21 18 18 26
35 43 41 30 24 17 15 21 26 22 17 17 19 18 21 26 20 26 24 23 25 18 18 26 21 19 19 32 33 24 35 35 37 39 33 27 25 26 35 28 27 24 23
38 38 27 29 21 21 18 17 43 31 17 18 22 18 17 22 24 26 30 33 26 28 28 23 28 34 32 30 38 43 45 47 41 31 33 37 43 40 34 34 34 30 29
42 42 33 24 14 8 13 12 32 38 31 22 12 6 12 11 15 19 23 30 27 23 26 26 29 37 39 39 35 33 50 55 46 40 41 44 48 52 50 48 40 39 31
41 47 41 29 18 15 11 12 19 24 21 22 15 7 10 15 11 4 11 16 14 16 19 20 19 25 24 27 34 33 35 37 48 58 55 53 52 53 53 52 52 43 40
33 43 45 32 26 23 15 13 20 17 21 24 13 5 8 9 4 3 3 5 7 15 14 16 19 19 22 22 32 32 31 28 30 36 43 46 47 48 44 48 57 53 45
36 49 49 38 32 30 26 20 20 19 20 22 10 7 5 10 9 9 7 4 5 6 9 13 18 22 23 22 34 33 28 28 15 19 25 32 39 45 42 46 51 56 53
37 48 43 38 40 38 33 22 15 9 20 12 8 6 10 7 3 4 2 1 8 7 9 9 13 20 17 20 24 27 13 13 12 13 18 27 42 47 38 34 42 58 59
15 49 47 39 40 37 28 18 15 3 13 7 7 3 13 18 11 2 5 6 3 6 6 9 11 13 13 12 18 16 7 6 20 27 20 24 36 38 44 43 35 50 60
41 38 49 52 40 38 25 23 15 19 20 19 19 16 11 4 7 3 2 3 2 4 6 8 11 13 14 20 16 13 16 20 17 20 20 18 13 33 21 26 36 27 57
42 16 25 44 40 33 38 20 14 18 19 18 14 13 6 6 10 9 8 8 10 10 10 12 12 14 18 19 18 20 23 20 16 22 37 27 24 29 32 36 29 33 46
27 22 39 38 33 36 38 30 21 17 12 15 11 2 6 19 22 18 15 13 17 20 23 26 23 21 21 20 21 19 19 22 22 19 28 36 35 27 24 29 31 33 33
Wind_Direction_850mb
148 138 129 125 124 121 114 107 103 104 108 112 118 123 127 129 120 120 123 122 125 134 140 140 141 170 156 126 141 131 129 131 125 124 124 130 119 124 122 133 123 130 127
145 142 136 135 133 127 120 112 106 107 109 109 112 115 114 113 110 112 119 124 126 131 138 133 125 110 126 131 115 108 102 107 115 108 113 119 128 133 129 130 118 129 130
148 145 144 137 136 131 126 117 109 105 108 107 104 101 103 106 110 112 117 123 120 122 120 122 122 121 122 119 114 109 115 124 133 118 118 122 122 130 128 134 121 132 132
147 146 142 139 137 137 131 123 113 113 112 105 102 91 95 93 100 107 109 114 117 120 114 119 118 121 120 116 111 119 121 112 112 115 103 119 137 148 140 138 138 131 135
148 146 144 143 145 146 140 129 124 117 114 108 102 100 101 102 100 109 114 121 119 124 129 128 122 121 119 116 116 118 127 121 102 286 203 177 134 157 148 146 147 132 135
140 144 147 143 139 140 136 133 131 125 118 113 114 113 118 108 116 106 116 117 124 123 130 133 129 127 122 115 119 124 108 88 82 108 132 138 124 154 140 135 137 134 135
133 147 158 152 148 145 144 140 136 132 125 116 123 127 127 122 116 117 117 127 138 140 137 133 133 133 124 120 127 122 113 83 109 114 148 102 130 153 147 145 151 142 146
166 178 179 167 160 158 154 147 143 138 138 130 128 131 133 127 115 114 148 154 152 146 150 146 146 146 129 128 128 133 135 115 89 119 108 96 138 159 152 163 158 143 152
165 182 183 174 165 161 156 148 151 147 145 141 145 144 134 140 135 86 141 187 174 174 158 158 158 168 157 144 140 152 152 137 179 156 108 176 148 149 164 172 165 160 163
158 204 192 171 166 160 158 153 153 158 165 163 158 156 148 149 190 318 247 207 190 178 173 177 187 204 198 183 158 152 163 143 158 174 188 160 215 215 182 188 171 171 171
160 187 198 176 173 161 152 154 164 179 175 174 173 165 154 122 86 30 235 174 184 189 195 207 217 228 228 215 199 183 175 186 224 207 142 202 236 257 216 215 196 185 187
179 179 188 182 135 164 192 198 189 167 183 183 152 161 182 135 122 70 84 177 194 201 204 224 234 226 236 232 214 206 229 220 233 236 268 261 320 262 233 253 225 209 202
178 173 189 193 168 196 209 210 198 189 197 195 187 226 225 209 298 229 169 169 220 228 243 230 220 224 235 217 208 229 246 235 229 248 244 231 255 277 258 258 236 227 216
179 166 182 189 183 184 210 248 216 204 232 219 249 242 209 210 231 248 250 250 257 251 276 238 232 248 242 220 236 249 249 236 247 283 254 221 264 282 241 253 242 240 232
181 177 165 180 199 211 230 201 171 210 215 234 248 235 248 214 230 250 252 259 277 266 249 239 253 251 278 225 238 249 247 250 248 248 263 254 276 269 244 253 260 257 247
159 163 173 195 223 244 232 215 206 193 190 225 262 268 245 221 228 226 245 250 268 259 246 247 253 259 250 230 235 236 232 243 242 248 251 267 271 264 249 257 261 256 256
171 187 202 213 241 247 225 245 200 190 211 240 266 280 257 238 254 257 253 248 251 255 252 257 258 265 268 260 246 235 249 260 239 229 233 259 264 266 257 260 255 252 248
171 192 195 215 211 199 192 137 178 199 214 227 242 280 300 252 215 242 246 253 257 248 254 259 254 256 258 262 262 256 249 247 244 242 238 239 253 264 265 263 261 254 249
176 185 196 210 213 214 186 199 184 204 221 228 216 315 3 169 175 201 240 240 248 261 261 268 265 268 280 279 276 275 263 256 250 247 248 251 253 259 256 257 255 249 247
192 190 196 199 204 215 218 224 205 203 226 206 253 325 281 243 262 2 334 179 258 302 286 275 296 299 291 307 301 288 286 275 260 257 257 258 261 252 257 259 249 250 251
178 178 198 210 203 219 233 239 225 201 220 236 239 239 281 247 258 235 235 243 348 341 324 321 325 318 300 318 315 320 326 322 288 274 272 257 251 247 256 254 254 246 250
171 189 194 210 208 221 226 232 210 234 229 228 217 280 303 296 281 217 275 326 355 352 6 329 316 307 307 317 326 333 337 282 280 280 292 283 260 241 254 255 248 250 245
199 189 187 194 208 233 245 219 169 216 255 240 253 354 333 326 309 323 47 28 33 1 327 309 323 317 332 339 324 320 317 292 287 300 282 295 263 262 256 263 260 251 247
219 198 198 210 210 221 241 210 203 196 214 189 182 165 85 279 252 178 220 274 353 290 307 315 315 321 317 308 313 316 323 306 286 297 286 295 314 234 262 253 285 265 250
196 194 190 195 209 203 223 229 212 216 225 200 207 183 257 296 255 219 243 269 269 280 285 284 297 303 297 289 287 298 294 301 305 277 296 322 286 275 275 280 286 267 239
174 174 184 193 193 201 208 218 238 234 221 223 213 275 304 237 237 254 272 278 283 284 284 286 294 289 289 290 284 281 285 297 301 298 289 303 304 300 284 282 282 271 256